< < Back
Terminal Aerodrome Forecast


Current Version              Previous Versions:   1  2  3  4  5  6  7  8  9  

Terminal Aerodrome Forecast

789
FTUS42 KCAE 230700 AAA
TAFCAE
TAF AMD
KCAE 230732Z 2308/2406 26005KT 3SM BR SKC
      TEMPO 2308/2312 VRB03KT 1SM BR
     FM231300 36010KT P6SM SKC=



Latest METAR

401
SAUS80 KWBC 231400
MTRCAE
METAR KCAE 231356Z 32004KT 10SM FEW220 21/13 A2988 RMK AO2 SLP114
T02110128


USA.gov is the U.S. government's official web portal to all federal, state and local government web resources and services.